Theta_e
291 290 290 291 291 290 290 291 291 291 291 291 291 291 291 292 292 292 292 291 290 290 290 288 288 287 286 286 285 282 285 283 284 286 290 292 291 291 294 297 297 299 300 299 299 301 302 296 296 304 303 295 298 298
290 289 290 290 289 290 291 291 291 291 291 291 291 291 291 291 291 292 291 290 290 290 287 289 289 288 289 288 285 280 285 281 285 285 289 289 289 289 292 293 297 301 297 296 301 302 299 294 298 296 295 295 296 297
289 290 290 289 290 291 291 290 292 291 292 292 292 292 292 291 291 291 291 290 289 289 288 287 287 289 289 289 289 283 281 286 287 286 287 290 290 290 284 294 295 294 294 296 299 299 299 297 295 294 294 296 296 295
289 289 289 290 290 290 291 292 292 292 292 292 292 292 293 292 292 291 291 290 289 288 287 286 287 288 288 289 289 289 287 287 283 282 283 284 285 289 290 292 291 292 293 295 293 296 296 297 295 296 295 294 295 295
289 289 290 291 290 291 291 292 292 292 292 293 294 294 292 292 292 291 290 290 290 289 288 285 286 289 289 288 288 288 288 286 280 281 284 284 287 288 287 288 289 292 292 294 299 296 295 296 294 294 294 294 293 294
288 289 291 289 291 291 291 292 292 292 292 293 293 292 292 291 291 290 285 289 290 289 289 288 284 281 288 289 288 287 287 286 287 287 285 285 287 288 286 286 290 291 292 293 296 294 293 292 292 293 295 295 293 293
289 290 289 291 291 291 291 291 292 292 292 292 291 291 291 290 289 285 285 289 289 289 288 284 280 280 284 283 278 280 283 285 287 288 286 286 286 289 280 289 289 290 291 291 290 291 291 292 295 292 293 292 288 287
289 290 290 290 291 290 290 291 291 291 291 291 291 290 290 289 288 288 288 289 289 288 281 279 280 279 283 285 286 279 284 287 285 284 277 283 281 285 288 288 288 290 290 290 290 291 291 292 290 288 284 284 287 288
290 289 290 290 291 290 290 289 289 290 290 290 289 288 288 287 286 287 288 288 289 286 281 278 279 279 282 281 281 279 283 285 279 287 285 287 289 289 287 287 286 289 289 289 290 285 284 286 291 287 285 282 287 287
289 289 289 290 291 289 288 289 288 288 288 287 285 285 278 284 286 287 286 284 286 280 282 278 276 285 285 281 284 286 287 289 289 286 283 288 288 288 288 284 286 289 287 284 287 291 289 283 284 288 288 286 285 280
288 289 289 290 290 289 288 286 285 283 285 284 275 273 285 285 285 273 274 276 273 275 272 283 281 283 286 286 287 287 285 278 288 282 286 280 279 288 287 287 288 287 286 288 288 290 288 290 290 282 277 270 272 270
288 289 289 290 290 289 288 286 283 282 282 283 283 284 285 276 272 273 269 271 272 277 275 279 280 281 279 283 287 287 285 279 281 273 279 277 286 275 271 271 273 271 271 273 282 286 277 271 270 272 269 267 266 269
288 289 289 289 289 289 287 285 284 284 283 282 276 270 272 271 274 273 272 274 274 273 273 276 278 279 276 282 286 288 286 283 272 275 279 283 277 272 269 266 268 267 268 271 270 270 269 266 268 267 266 266 269 268
289 288 288 289 288 289 287 285 285 284 282 273 271 273 272 269 268 269 272 273 276 274 274 275 276 280 281 285 287 287 282 280 278 279 281 276 274 272 269 266 264 267 268 269 267 265 266 266 265 267 267 269 268 266
288 289 288 288 288 289 288 287 285 284 282 275 271 273 269 269 265 270 269 272 274 274 278 279 282 285 285 287 282 281 283 284 284 286 282 278 271 268 268 266 265 266 266 263 263 264 265 265 267 266 266 267 267 266
288 288 287 287 289 289 288 286 285 283 277 275 271 273 263 268 270 269 269 273 274 277 280 283 283 283 284 284 283 285 285 288 283 279 278 274 272 269 266 265 265 264 263 263 263 264 266 266 266 266 265 265 265 264
287 288 286 288 288 288 287 285 283 273 274 273 274 261 267 266 275 271 269 275 280 279 282 283 287 288 288 289 287 280 280 278 275 276 275 272 270 268 266 264 265 264 265 266 267 267 266 267 267 266 265 264 264 264
287 287 287 288 287 287 286 283 279 271 275 271 274 270 264 266 269 271 272 276 278 280 282 286 283 284 286 284 282 276 275 273 273 273 273 271 269 267 266 265 266 266 266 266 266 267 267 267 266 266 265 264 264 263
286 287 287 288 287 287 281 281 281 278 277 269 267 266 265 267 269 273 273 273 274 278 282 283 285 281 279 276 273 272 271 271 270 271 272 270 269 268 269 268 268 266 266 265 265 265 264 265 265 265 264 264 263 262
286 287 287 287 287 284 283 280 280 276 276 274 266 268 268 270 270 269 271 276 276 279 281 280 277 274 273 272 271 270 270 270 269 270 272 270 270 270 270 270 268 267 267 266 266 265 265 264 263 263 262 262 262 261
286 286 285 285 287 285 283 276 273 275 272 275 267 271 273 269 271 273 274 272 274 271 279 273 272 270 269 269 269 268 268 268 268 268 270 271 270 270 269 268 267 266 265 265 264 263 263 262 262 261 261 260 260 260
284 284 285 286 284 284 282 280 277 273 275 271 274 268 272 273 270 271 271 272 269 269 268 268 267 266 267 268 268 269 268 268 269 269 269 269 269 268 267 267 266 265 265 264 264 263 263 262 261 261 260 260 260 260
283 284 284 286 286 282 283 280 280 274 280 273 272 274 273 271 268 269 273 266 264 263 264 264 265 266 266 268 269 268 268 268 268 267 266 267 266 266 266 265 265 265 264 264 264 263 262 262 261 261 260 260 259 259
282 280 280 285 285 284 279 279 277 276 275 275 274 273 273 269 267 272 274 262 261 263 264 264 265 267 268 269 268 267 267 268 267 266 266 265 265 265 264 264 264 264 264 263 263 262 261 261 260 260 259 259 258 257
278 277 277 281 278 281 281 281 279 280 276 270 274 272 271 266 270 268 272 263 258 260 262 262 263 265 265 265 266 266 266 266 265 265 264 265 264 264 264 264 264 264 264 263 262 260 259 260 260 259 259 258 258 258
279 274 275 276 277 279 280 282 282 279 276 275 271 265 265 266 271 271 263 258 257 257 258 257 260 262 264 265 265 264 264 265 265 262 262 264 266 266 266 266 265 263 263 262 261 260 259 259 259 259 258 259 260 260
277 273 271 270 271 273 275 275 275 277 277 272 265 267 267 273 269 263 259 256 257 262 262 262 262 261 262 264 264 263 262 264 263 261 261 262 264 266 266 264 262 261 263 264 263 262 260 259 259 259 259 259 260 260
269 269 273 270 271 270 273 273 274 276 271 264 262 269 270 268 265 259 256 263 263 263 264 265 265 265 265 265 264 263 263 263 263 263 262 262 262 263 263 263 262 263 263 264 264 263 262 262 261 261 261 259 259 260
270 268 269 271 270 269 268 269 269 266 263 259 262 261 259 255 252 252 262 262 263 264 265 265 266 266 265 266 265 265 265 265 266 267 266 264 261 259 261 262 263 263 263 262 262 262 262 262 262 262 261 261 261 261
269 267 271 271 269 266 264 263 262 261 262 257 255 255 255 255 263 262 262 263 263 263 265 265 266 266 266 266 266 265 265 266 268 268 263 260 258 259 261 262 263 262 262 262 261 261 262 262 261 261 261 260 261 262
266 267 270 272 271 268 265 263 263 262 259 258 255 256 256 254 263 263 262 263 263 265 265 264 265 265 266 266 267 267 265 265 267 268 268 264 262 262 263 263 264 264 264 263 263 262 262 262 262 261 261 261 261 261
267 270 272 274 270 268 267 267 265 263 262 261 260 256 257 257 259 257 262 263 263 263 262 263 263 262 262 263 264 264 265 265 265 266 265 264 263 263 264 264 264 264 263 263 263 262 263 263 262 262 261 260 260 260
269 271 272 272 270 269 269 270 269 270 268 265 263 261 259 260 263 259 261 261 261 261 261 261 260 261 262 262 262 262 263 264 264 264 264 265 265 264 264 264 263 263 263 263 263 263 263 263 262 262 261 261 261 261
Wind_Speed
21 22 23 25 25 27 30 32 35 37 39 40 40 40 38 37 36 35 20 21 20 7 8 8 10 7 1 4 4 5 3 4 3 2 3 3 3 1 5 6 5 8 7 4 2 2 8 7 3 6 3 2 2 3
20 22 23 24 27 29 32 36 38 41 43 44 44 42 41 38 33 30 22 19 21 8 4 22 29 37 19 14 6 2 6 6 4 1 2 3 7 5 4 4 1 4 2 3 8 7 1 5 2 4 2 1 2 2
20 22 23 26 28 31 35 37 42 46 48 49 46 43 39 37 34 29 25 17 12 2 1 2 7 16 29 29 22 4 3 4 2 3 2 2 6 0 2 4 4 10 10 4 3 4 5 5 5 5 4 2 2 3
20 21 23 26 29 31 34 39 43 47 47 49 46 38 34 30 27 24 17 15 9 2 3 5 11 12 28 31 28 26 8 3 3 3 3 3 3 5 5 5 11 6 5 7 9 13 7 7 4 9 7 7 6 5
19 21 23 26 27 30 31 36 37 38 43 44 36 32 20 18 16 16 16 15 17 4 3 3 3 11 14 23 26 22 14 6 2 1 2 4 3 3 5 3 10 4 9 6 4 5 2 6 16 15 9 11 9 7
18 21 23 23 25 24 26 28 29 28 31 32 26 7 4 7 7 6 2 9 17 15 1 1 4 2 13 19 17 9 11 6 5 3 3 3 6 3 4 8 6 8 11 10 6 6 13 15 16 10 8 8 7 8
18 20 19 21 18 18 20 21 22 23 22 23 23 18 14 12 14 4 3 1 8 17 2 1 4 3 2 3 1 1 3 3 4 3 4 4 4 6 3 15 13 13 16 13 12 12 17 10 7 7 5 6 3 2
18 17 17 16 13 12 15 17 17 17 18 19 21 20 17 15 9 4 2 4 11 4 3 1 4 4 3 3 3 2 3 3 4 4 2 4 1 5 9 16 5 10 16 15 17 14 16 18 10 7 2 3 2 1
16 14 16 14 9 7 8 12 14 13 12 11 8 7 3 7 3 3 3 2 6 2 2 2 3 4 1 2 2 2 3 3 2 6 7 4 6 7 8 11 10 18 15 18 11 6 5 7 12 8 5 3 2 4
12 13 15 12 6 6 9 13 15 16 16 16 8 4 3 3 6 4 3 2 1 2 1 2 0 2 3 0 2 2 3 4 4 6 3 7 10 19 15 9 10 15 11 3 3 17 10 5 5 6 9 3 3 3
9 10 12 9 5 4 8 11 14 15 8 4 3 1 1 2 2 3 1 3 2 3 1 2 3 2 1 1 3 3 3 2 2 5 7 4 4 15 19 19 15 13 11 14 12 17 7 9 8 4 3 4 5 4
9 11 10 7 4 6 7 8 12 9 5 3 1 1 1 3 3 4 2 3 3 4 3 3 4 3 3 1 3 3 3 1 5 2 3 3 10 7 7 6 9 7 7 10 10 11 4 5 3 5 5 3 2 4
9 9 10 8 6 6 6 6 9 11 8 2 2 4 3 3 5 4 3 4 2 2 3 1 3 3 3 2 4 4 4 5 1 2 5 6 3 4 5 4 8 8 7 6 4 2 7 6 8 4 5 7 12 13
9 10 10 11 9 9 4 6 9 11 3 3 3 4 3 4 4 4 4 4 5 2 2 2 2 3 4 4 4 3 4 2 2 1 6 2 3 6 6 4 3 7 6 5 3 4 8 8 6 12 15 13 14 12
11 10 11 14 8 10 4 5 9 7 1 1 4 3 4 3 3 4 3 2 3 2 0 3 3 3 2 4 3 1 3 4 3 2 2 2 2 4 5 4 6 6 6 4 2 4 6 6 8 10 16 20 20 20
10 11 8 6 7 9 6 4 4 1 3 2 1 1 2 3 4 3 1 3 2 1 2 2 3 2 5 3 1 6 3 5 0 3 4 5 8 5 4 4 4 4 2 3 5 5 9 8 8 11 18 20 20 20
7 4 1 1 5 5 4 2 1 4 2 1 3 1 3 1 4 3 3 3 1 2 2 2 4 5 3 3 1 4 4 2 4 4 4 4 5 6 4 3 4 3 3 4 10 13 13 16 16 15 13 15 19 20
6 9 7 7 3 5 3 5 3 3 3 3 1 3 2 3 2 4 3 1 2 2 1 2 3 3 3 3 2 2 3 5 4 5 3 4 4 4 3 3 4 8 8 11 11 13 14 12 9 9 15 16 18 18
10 11 12 12 9 6 2 2 3 3 5 2 2 1 2 3 3 3 2 2 3 2 3 2 2 2 2 2 3 3 3 3 6 5 3 4 5 4 3 8 9 9 10 11 12 10 13 17 15 15 15 15 14 14
12 14 11 7 12 3 2 2 2 2 3 3 1 2 2 3 3 2 2 1 0 1 1 1 1 1 2 2 2 3 3 3 4 4 1 2 4 4 5 6 6 10 11 13 14 14 16 17 19 18 18 16 16 15
9 9 7 6 11 7 2 2 1 3 2 1 2 0 3 2 2 2 2 2 3 1 1 2 1 2 3 5 5 5 3 1 1 2 2 1 3 5 7 10 11 11 9 8 6 11 15 13 14 16 19 20 20 21
4 6 3 9 4 5 2 6 3 2 2 2 1 1 2 2 2 2 2 3 2 2 2 1 1 3 4 3 4 7 7 6 7 4 5 4 2 3 4 8 9 6 9 9 11 11 15 16 18 20 22 22 24 24
5 4 4 4 3 4 2 5 2 1 1 3 2 3 3 3 2 2 2 0 1 1 2 2 4 7 4 6 8 10 10 9 4 5 7 8 10 10 11 12 12 10 7 12 14 17 19 19 19 21 22 23 23 24
3 0 2 2 4 3 3 2 2 2 1 2 3 2 3 3 2 2 2 2 2 2 4 6 5 4 2 3 4 4 10 7 8 10 11 8 5 9 12 14 15 15 13 15 17 19 19 20 21 23 23 24 23 24
2 2 1 3 2 2 4 4 4 3 3 3 3 2 2 2 2 2 1 3 3 2 4 4 4 3 2 2 2 6 13 9 5 5 11 11 10 12 13 15 16 13 13 17 17 20 20 23 24 25 25 26 27 25
3 1 1 2 1 0 1 4 4 3 3 2 2 2 2 3 1 4 2 2 1 1 2 2 3 3 3 5 2 3 8 6 9 6 9 9 8 6 5 6 5 9 13 21 26 25 24 25 27 28 26 23 23 23
2 1 2 1 1 0 1 1 1 1 2 3 3 1 3 1 4 2 3 1 0 3 10 10 7 3 3 7 7 9 9 8 10 11 10 14 14 11 11 8 8 10 17 24 30 32 33 30 29 26 23 20 18 17
2 3 2 2 2 2 1 1 2 3 2 1 2 2 6 4 3 3 3 2 9 12 10 5 2 2 5 3 6 10 14 17 19 19 21 22 19 19 20 21 20 20 24 26 28 29 29 29 27 24 22 20 18 16
2 1 0 2 2 2 1 0 1 2 1 2 3 1 2 3 2 2 4 10 10 6 6 5 4 3 5 7 6 3 1 3 4 4 7 5 3 11 19 23 25 27 27 27 25 25 25 24 22 21 20 19 18 17
2 1 0 2 2 1 2 2 2 1 1 2 3 2 2 2 1 4 6 5 6 4 4 4 3 1 1 2 0 3 5 4 5 7 4 4 9 21 23 27 29 30 30 30 28 25 23 21 21 20 19 18 17 18
1 1 1 1 3 2 2 2 2 2 1 1 1 3 3 2 1 1 9 5 4 2 2 4 4 5 3 3 1 1 1 5 7 10 16 27 27 27 27 27 27 27 26 26 25 24 22 21 20 20 20 19 18 17
1 1 0 2 2 3 3 2 3 2 1 2 1 2 3 3 1 2 9 4 1 4 4 2 3 3 2 1 1 1 4 13 20 27 27 28 27 25 24 24 24 25 25 24 22 21 19 20 19 18 18 17 16 15
2 1 1 3 3 4 3 2 1 2 1 1 1 3 3 3 2 2 3 5 3 2 2 3 3 3 4 6 11 16 20 25 25 24 24 23 23 23 22 23 23 23 22 21 19 18 18 18 18 16 15 14 13 12
Wind_Direction
300 304 303 306 307 308 305 304 301 296 293 289 286 283 280 277 272 271 268 256 224 249 252 204 207 184 130 160 174 247 28 334 10 192 226 292 224 300 286 225 240 194 160 188 145 138 265 160 95 179 216 354 321 314
301 300 305 308 308 307 306 305 304 300 296 292 287 283 280 276 272 271 253 244 231 234 253 203 212 224 207 189 165 248 196 178 214 122 55 338 306 287 281 281 248 238 261 202 184 211 242 204 262 230 134 239 285 108
298 302 308 306 309 312 313 310 307 306 301 295 288 278 273 267 266 260 256 230 202 218 254 229 214 214 226 224 232 162 270 161 249 169 192 237 269 259 199 243 317 346 16 317 350 273 257 251 256 246 228 224 206 145
298 305 306 311 315 318 316 316 316 314 311 301 287 277 266 258 256 249 239 212 198 195 195 257 222 203 224 221 218 216 228 206 121 122 176 203 206 205 271 282 297 275 331 321 293 290 280 264 262 344 253 225 206 213
301 304 311 315 320 320 323 325 329 330 332 329 309 252 255 242 240 237 238 218 218 196 210 245 274 218 209 210 214 219 228 219 146 58 201 228 251 245 265 268 263 216 252 253 282 351 334 291 323 320 257 236 214 201
299 307 313 320 322 325 330 337 344 347 360 21 36 82 187 190 170 128 20 222 226 197 263 176 293 298 194 207 202 210 215 211 195 179 201 214 227 183 267 258 229 236 253 245 252 289 300 292 293 300 274 253 223 196
298 309 316 323 329 335 341 349 359 10 21 41 61 68 85 124 143 96 174 319 196 175 141 269 297 293 235 143 49 72 152 210 198 221 211 228 245 215 229 261 256 275 271 277 286 302 293 278 267 316 344 357 349 80
299 311 313 323 327 350 358 6 13 25 38 50 64 81 87 92 93 44 37 77 145 95 71 137 277 9 161 168 203 179 164 192 206 203 335 204 319 192 243 254 230 247 254 267 266 264 255 275 290 280 308 337 327 2
302 307 316 313 313 334 351 358 357 11 24 27 25 23 27 45 47 357 14 101 188 105 181 135 153 259 2 272 178 1 160 192 202 215 225 164 244 215 226 220 225 244 246 258 270 271 284 259 281 287 268 293 263 294
302 310 314 304 275 304 331 324 319 314 312 313 317 22 14 18 336 319 335 51 16 333 129 193 207 260 145 281 269 220 202 206 221 224 119 209 237 241 241 225 241 251 245 224 263 280 289 269 263 277 241 256 207 126
291 304 324 309 262 298 325 339 337 332 312 346 36 192 341 50 14 27 351 90 321 338 315 232 181 217 248 170 234 228 213 228 230 251 178 218 252 234 233 241 250 277 295 273 251 261 233 260 272 246 110 53 76 78
279 293 314 327 235 280 318 339 350 5 350 345 291 336 316 40 38 81 266 323 91 230 273 169 230 198 278 214 200 230 230 60 217 152 120 249 245 54 10 334 317 314 305 300 283 246 181 100 71 96 94 84 84 107
275 295 292 310 282 242 293 325 344 341 316 266 40 39 52 320 21 105 270 307 319 251 241 242 271 195 339 266 242 237 227 234 21 69 213 240 41 6 340 305 316 307 313 301 303 39 115 96 77 85 113 124 104 78
281 276 289 288 292 215 255 319 337 338 298 81 86 309 132 307 243 191 195 206 241 181 277 212 255 193 196 235 228 244 239 69 8 349 230 292 15 326 320 311 333 318 328 335 38 78 93 99 97 87 94 97 89 72
304 281 283 288 253 191 229 303 326 332 229 161 90 248 228 241 246 234 235 1 264 222 138 328 255 225 230 253 204 17 312 253 220 289 348 15 339 309 318 326 324 329 335 356 41 88 98 94 92 79 75 83 83 77
298 310 284 253 198 193 221 288 303 255 54 110 67 26 283 44 293 317 264 256 257 246 319 221 251 242 230 214 141 227 196 212 23 360 350 348 335 324 308 323 332 325 1 44 59 80 85 84 96 93 76 69 69 71
305 233 153 292 271 222 242 258 143 45 180 323 266 188 162 209 229 242 178 237 243 85 227 290 249 232 287 229 226 9 8 13 336 322 320 337 328 325 345 353 26 9 41 60 75 77 86 97 95 87 80 69 71 70
271 296 277 256 242 222 208 189 97 81 266 249 162 255 219 202 233 274 255 241 83 234 239 245 297 293 326 334 4 25 321 318 301 324 335 356 359 9 11 25 34 46 52 59 71 79 78 84 86 84 87 86 78 70
289 289 289 267 212 175 139 216 155 222 238 238 275 280 203 253 251 262 240 239 203 220 292 260 277 317 310 39 357 317 290 309 312 320 330 346 351 9 50 66 74 74 72 70 73 78 75 73 80 83 81 81 79 67
289 288 289 277 201 128 144 270 192 143 259 239 61 290 201 222 247 258 277 349 303 214 154 62 69 327 319 344 284 278 300 309 305 308 123 7 6 46 55 90 84 85 88 86 82 85 84 77 69 76 79 82 84 72
289 293 291 253 196 181 165 161 309 203 224 195 250 75 279 353 328 330 327 344 55 35 307 82 74 306 314 309 326 322 323 328 270 272 315 10 13 54 66 77 84 78 80 80 84 75 75 77 81 85 85 81 82 82
278 277 251 199 173 183 200 199 172 213 124 212 15 83 333 324 303 313 304 43 36 21 2 355 46 305 322 325 327 341 335 349 31 45 40 42 44 47 52 60 86 82 76 80 93 96 91 90 91 89 88 85 87 86
237 213 226 237 180 171 208 130 119 285 149 272 27 15 318 305 239 334 62 112 279 349 296 309 300 283 251 323 14 17 15 24 44 58 55 62 63 60 73 70 82 97 94 79 92 96 93 94 91 93 94 93 92 86
221 232 240 235 204 165 113 157 141 123 46 66 111 287 282 253 339 46 270 291 273 326 351 343 333 338 16 22 53 16 1 57 61 63 60 75 76 62 71 76 78 85 97 106 100 95 93 92 100 100 101 98 94 91
94 300 352 219 2 143 157 160 162 153 202 201 117 276 271 19 355 326 244 287 353 340 349 345 348 5 36 327 2 24 41 72 68 75 46 80 97 93 80 79 76 80 108 108 100 99 97 106 106 106 105 103 100 94
211 21 65 10 52 86 88 169 172 155 129 129 217 260 41 100 84 246 253 270 292 294 316 340 334 343 8 6 339 4 357 38 94 73 40 65 85 102 110 105 97 67 119 125 121 112 109 112 111 108 103 102 103 101
219 86 38 14 27 51 96 36 41 117 147 170 227 158 91 167 246 265 287 238 242 307 325 318 311 295 311 335 26 33 47 81 95 99 91 82 83 91 112 105 108 118 138 134 131 129 125 122 118 114 109 105 101 101
73 20 84 21 72 351 136 162 184 175 125 219 73 190 179 185 224 246 224 348 325 330 332 347 1 358 354 49 67 88 88 95 98 94 87 79 83 95 105 110 115 127 129 131 130 129 126 123 120 117 112 107 100 95
81 12 230 105 114 58 30 225 150 70 122 103 149 203 213 234 220 237 297 319 324 325 9 18 57 91 109 112 126 97 171 247 250 120 101 99 73 80 112 120 124 125 125 123 121 119 117 115 112 108 103 101 99 99
50 4 180 113 85 259 246 166 171 163 74 143 137 49 5 317 246 351 335 342 357 346 357 348 352 207 240 232 22 40 43 73 109 140 135 144 152 135 135 132 131 130 130 128 124 122 119 115 112 108 106 105 103 98
305 273 232 84 81 44 116 106 79 82 74 98 180 120 209 237 275 321 7 351 345 357 85 41 48 41 49 42 19 191 87 66 116 138 143 138 137 141 142 142 141 139 136 131 129 127 126 121 115 110 104 98 95 95
253 254 299 117 120 128 161 209 162 156 190 87 289 77 9 42 323 295 1 -0 85 70 52 77 89 41 32 84 182 193 152 133 132 133 135 134 137 140 141 141 141 139 136 134 131 128 123 117 113 108 105 102 100 97
259 214 201 129 136 178 193 189 191 137 119 93 242 175 176 165 211 261 15 21 72 106 108 108 115 114 123 133 129 124 128 132 132 133 132 133 136 140 142 143 144 143 140 135 132 129 126 122 117 113 109 106 101 95